QPF
0.04 0.04 0.03 0.01 0.01 0.00 0.00 0.00 0.00 0.00 0.00 0.00 0.00 0.00 0.00 0.00 0.00 0.00 0.00 0.00 0.00 0.00 0.00 0.00 0.00 0.00 0.00 0.00 0.00 0.00 0.00 0.01 0.01 0.01 0.01 0.03 0.04 0.05 0.06 0.06 0.06 0.06 0.05 0.05
0.05 0.03 0.01 0.01 0.01 0.01 0.01 0.00 0.00 0.00 0.00 0.00 0.00 0.00 0.00 0.00 0.00 0.00 0.00 0.00 0.00 0.00 0.00 0.00 0.00 0.00 0.00 0.00 0.00 0.00 0.00 0.00 0.00 0.00 0.00 0.01 0.03 0.04 0.05 0.05 0.05 0.05 0.06 0.05
0.03 0.02 0.01 0.01 0.02 0.03 0.02 0.01 0.00 0.00 0.00 0.00 0.00 0.00 0.00 0.00 0.00 0.00 0.00 0.00 0.00 0.00 0.00 0.00 0.00 0.00 0.00 0.00 0.00 0.00 0.00 0.00 0.00 0.00 0.01 0.01 0.01 0.02 0.02 0.02 0.03 0.03 0.04 0.04
0.02 0.01 0.02 0.03 0.02 0.03 0.03 0.01 0.01 0.01 0.00 0.00 0.00 0.00 0.00 0.00 0.00 0.00 0.00 0.00 0.00 0.00 0.00 0.00 0.00 0.00 0.00 0.00 0.00 0.00 0.00 0.00 0.01 0.01 0.01 0.01 0.01 0.01 0.01 0.01 0.01 0.02 0.02 0.03
0.03 0.01 0.02 0.03 0.03 0.02 0.03 0.02 0.01 0.01 0.01 0.01 0.00 0.00 0.00 0.00 0.00 0.00 0.00 0.00 0.00 0.00 0.00 0.00 0.00 0.00 0.00 0.00 0.00 0.00 0.00 0.01 0.01 0.01 0.01 0.01 0.01 0.01 0.01 0.01 0.01 0.01 0.01 0.02
0.02 0.02 0.03 0.02 0.02 0.03 0.03 0.03 0.04 0.04 0.04 0.03 0.00 0.00 0.00 0.00 0.00 0.00 0.00 0.00 0.00 0.00 0.00 0.00 0.00 0.00 0.00 0.00 0.00 0.00 0.00 0.00 0.00 0.01 0.01 0.01 0.02 0.02 0.02 0.01 0.01 0.01 0.01 0.01
0.01 0.02 0.03 0.02 0.02 0.04 0.07 0.07 0.09 0.10 0.08 0.02 0.00 0.00 0.00 0.00 0.00 0.00 0.00 0.00 0.00 0.00 0.00 0.00 0.00 0.00 0.00 0.00 0.00 0.00 0.00 0.00 0.00 0.01 0.01 0.01 0.01 0.02 0.02 0.02 0.02 0.02 0.01 0.01
0.02 0.02 0.02 0.03 0.03 0.04 0.05 0.06 0.04 0.04 0.02 0.01 0.00 0.00 0.00 0.00 0.00 0.00 0.00 0.00 0.00 0.01 0.01 0.00 0.00 0.00 0.00 0.00 0.00 0.00 0.00 0.00 0.00 0.00 0.00 0.01 0.01 0.02 0.02 0.02 0.03 0.03 0.02 0.01
0.03 0.02 0.01 0.02 0.02 0.03 0.04 0.05 0.04 0.03 0.02 0.01 0.01 0.01 0.01 0.00 0.00 0.00 0.00 0.00 0.01 0.01 0.01 0.00 0.00 0.00 0.00 0.00 0.00 0.00 0.00 0.00 0.00 0.00 0.00 0.01 0.01 0.02 0.01 0.02 0.02 0.03 0.03 0.02
0.04 0.03 0.01 0.01 0.03 0.03 0.03 0.04 0.05 0.06 0.03 0.02 0.01 0.01 0.01 0.01 0.00 0.00 0.00 0.01 0.01 0.01 0.01 0.00 0.00 0.00 0.00 0.00 0.00 0.00 0.00 0.00 0.00 0.00 0.00 0.01 0.01 0.02 0.01 0.02 0.02 0.03 0.03 0.03
0.04 0.04 0.03 0.02 0.04 0.04 0.05 0.07 0.06 0.05 0.04 0.03 0.01 0.01 0.01 0.01 0.01 0.01 0.01 0.01 0.01 0.01 0.00 0.00 0.00 0.00 0.00 0.00 0.00 0.00 0.00 0.00 0.00 0.00 0.00 0.01 0.01 0.01 0.01 0.01 0.01 0.02 0.02 0.02
0.04 0.06 0.04 0.03 0.03 0.03 0.04 0.05 0.05 0.05 0.03 0.02 0.02 0.02 0.01 0.01 0.01 0.01 0.01 0.01 0.00 0.00 0.00 0.00 0.00 0.00 0.00 0.00 0.00 0.00 0.00 0.00 0.00 0.00 0.00 0.01 0.01 0.01 0.01 0.01 0.01 0.01 0.01 0.01
0.06 0.07 0.05 0.04 0.05 0.05 0.06 0.06 0.04 0.04 0.03 0.02 0.02 0.02 0.01 0.01 0.01 0.01 0.00 0.00 0.00 0.00 0.00 0.00 0.00 0.00 0.00 0.00 0.00 0.00 0.00 0.00 0.00 0.00 0.01 0.01 0.01 0.01 0.01 0.01 0.01 0.01 0.01 0.01
0.06 0.06 0.06 0.05 0.05 0.05 0.05 0.05 0.05 0.05 0.05 0.03 0.02 0.02 0.01 0.01 0.01 0.01 0.01 0.01 0.01 0.01 0.01 0.01 0.00 0.00 0.00 0.00 0.00 0.00 0.00 0.01 0.00 0.00 0.01 0.01 0.01 0.01 0.02 0.02 0.02 0.01 0.01 0.01
0.04 0.05 0.04 0.03 0.02 0.02 0.03 0.04 0.04 0.04 0.03 0.02 0.02 0.01 0.01 0.01 0.01 0.01 0.01 0.01 0.02 0.01 0.01 0.00 0.00 0.00 0.00 0.00 0.00 0.00 0.00 0.01 0.00 0.00 0.01 0.01 0.01 0.01 0.02 0.02 0.03 0.02 0.02 0.02
0.03 0.03 0.02 0.03 0.02 0.01 0.01 0.03 0.03 0.04 0.04 0.03 0.02 0.02 0.02 0.01 0.01 0.01 0.02 0.02 0.02 0.02 0.02 0.01 0.00 0.00 0.00 0.00 0.00 0.00 0.00 0.01 0.01 0.01 0.01 0.01 0.02 0.02 0.03 0.03 0.03 0.04 0.04 0.03
0.03 0.04 0.03 0.03 0.02 0.01 0.03 0.04 0.04 0.04 0.04 0.03 0.03 0.03 0.03 0.02 0.02 0.02 0.02 0.03 0.03 0.03 0.02 0.01 0.00 0.00 0.00 0.00 0.00 0.00 0.00 0.01 0.01 0.02 0.02 0.01 0.02 0.03 0.04 0.05 0.05 0.04 0.05 0.05
0.03 0.03 0.04 0.04 0.04 0.04 0.05 0.03 0.03 0.03 0.03 0.04 0.03 0.03 0.03 0.03 0.02 0.02 0.02 0.01 0.02 0.03 0.03 0.02 0.01 0.01 0.01 0.00 0.00 0.00 0.00 0.01 0.01 0.01 0.02 0.02 0.02 0.03 0.04 0.04 0.05 0.05 0.05 0.05
0.03 0.04 0.04 0.04 0.03 0.03 0.02 0.02 0.04 0.04 0.04 0.04 0.03 0.03 0.03 0.03 0.01 0.02 0.02 0.01 0.01 0.02 0.03 0.03 0.02 0.01 0.01 0.01 0.01 0.01 0.01 0.01 0.01 0.01 0.01 0.01 0.01 0.02 0.02 0.03 0.04 0.04 0.04 0.04
0.02 0.03 0.04 0.03 0.03 0.03 0.03 0.03 0.03 0.04 0.05 0.04 0.03 0.03 0.03 0.03 0.02 0.02 0.02 0.02 0.02 0.02 0.02 0.03 0.03 0.02 0.02 0.02 0.01 0.02 0.02 0.02 0.01 0.01 0.01 0.01 0.01 0.01 0.02 0.02 0.02 0.03 0.03 0.03
0.02 0.03 0.04 0.03 0.03 0.03 0.04 0.03 0.03 0.05 0.06 0.04 0.04 0.04 0.04 0.04 0.03 0.02 0.02 0.02 0.01 0.01 0.01 0.02 0.02 0.01 0.02 0.03 0.02 0.02 0.02 0.02 0.02 0.02 0.01 0.01 0.01 0.01 0.01 0.02 0.02 0.02 0.02 0.02
0.02 0.03 0.03 0.03 0.03 0.04 0.04 0.04 0.06 0.07 0.04 0.04 0.04 0.04 0.05 0.05 0.04 0.02 0.02 0.01 0.01 0.01 0.01 0.01 0.01 0.01 0.02 0.03 0.03 0.02 0.02 0.02 0.02 0.02 0.01 0.01 0.02 0.02 0.02 0.02 0.02 0.01 0.01 0.02
0.03 0.04 0.04 0.04 0.05 0.06 0.06 0.07 0.07 0.05 0.05 0.05 0.05 0.05 0.05 0.05 0.04 0.03 0.03 0.02 0.01 0.01 0.01 0.02 0.02 0.02 0.02 0.03 0.03 0.03 0.02 0.02 0.02 0.03 0.02 0.01 0.02 0.02 0.02 0.02 0.02 0.02 0.02 0.02
0.03 0.02 0.03 0.04 0.05 0.06 0.06 0.05 0.05 0.05 0.05 0.05 0.05 0.05 0.04 0.04 0.04 0.03 0.03 0.02 0.01 0.01 0.02 0.02 0.02 0.02 0.03 0.03 0.03 0.03 0.02 0.01 0.02 0.02 0.02 0.02 0.02 0.02 0.02 0.02 0.02 0.02 0.02 0.02
0.04 0.03 0.03 0.04 0.05 0.04 0.04 0.05 0.05 0.04 0.03 0.04 0.04 0.04 0.04 0.04 0.04 0.03 0.03 0.02 0.02 0.02 0.02 0.02 0.03 0.03 0.04 0.05 0.05 0.04 0.03 0.02 0.02 0.02 0.02 0.02 0.02 0.02 0.02 0.02 0.02 0.02 0.02 0.02
0.05 0.04 0.04 0.05 0.04 0.04 0.05 0.04 0.03 0.03 0.03 0.03 0.03 0.03 0.03 0.03 0.04 0.03 0.03 0.03 0.03 0.03 0.03 0.03 0.03 0.03 0.03 0.04 0.04 0.04 0.04 0.02 0.02 0.03 0.03 0.03 0.02 0.02 0.01 0.01 0.02 0.02 0.02 0.02
MSLP
1010.43 1009.96 1009.61 1009.41 1009.40 1009.55 1009.84 1010.21 1010.57 1010.85 1010.98 1010.91 1010.62 1010.14 1009.50 1008.78 1008.06 1007.41 1006.88 1006.49 1006.26 1006.16 1006.17 1006.25 1006.38 1006.55 1006.74 1006.97 1007.23 1007.53 1007.88 1008.25 1008.62 1009.00 1009.35 1009.69 1010.02 1010.36 1010.75 1011.19 1011.71 1012.32 1012.99 1013.70
1009.63 1009.06 1008.65 1008.45 1008.46 1008.68 1009.07 1009.54 1010.00 1010.37 1010.55 1010.50 1010.20 1009.67 1008.97 1008.18 1007.39 1006.67 1006.09 1005.67 1005.41 1005.30 1005.32 1005.42 1005.57 1005.76 1005.99 1006.24 1006.54 1006.87 1007.23 1007.61 1008.00 1008.36 1008.71 1009.03 1009.33 1009.65 1010.01 1010.45 1010.96 1011.57 1012.26 1013.00
1008.97 1008.32 1007.86 1007.64 1007.66 1007.90 1008.33 1008.84 1009.35 1009.74 1009.93 1009.88 1009.56 1009.01 1008.28 1007.46 1006.65 1005.92 1005.33 1004.92 1004.67 1004.58 1004.61 1004.73 1004.89 1005.10 1005.34 1005.61 1005.92 1006.27 1006.64 1007.03 1007.41 1007.77 1008.10 1008.40 1008.69 1008.98 1009.32 1009.73 1010.23 1010.83 1011.53 1012.28
1008.57 1007.86 1007.35 1007.08 1007.06 1007.28 1007.67 1008.15 1008.62 1008.97 1009.13 1009.04 1008.69 1008.13 1007.41 1006.62 1005.85 1005.17 1004.64 1004.28 1004.09 1004.04 1004.09 1004.22 1004.40 1004.60 1004.83 1005.10 1005.40 1005.73 1006.10 1006.49 1006.87 1007.22 1007.54 1007.83 1008.09 1008.37 1008.68 1009.08 1009.57 1010.16 1010.85 1011.62
1008.53 1007.76 1007.19 1006.85 1006.75 1006.88 1007.17 1007.54 1007.90 1008.15 1008.21 1008.05 1007.68 1007.12 1006.44 1005.72 1005.04 1004.47 1004.06 1003.80 1003.69 1003.70 1003.79 1003.93 1004.10 1004.27 1004.47 1004.70 1004.96 1005.27 1005.61 1005.98 1006.35 1006.70 1007.01 1007.29 1007.56 1007.83 1008.14 1008.53 1009.01 1009.60 1010.29 1011.06
1008.90 1008.08 1007.44 1007.01 1006.80 1006.78 1006.91 1007.11 1007.29 1007.38 1007.31 1007.06 1006.65 1006.09 1005.48 1004.86 1004.32 1003.90 1003.63 1003.51 1003.50 1003.59 1003.71 1003.85 1003.98 1004.11 1004.25 1004.41 1004.61 1004.86 1005.16 1005.49 1005.85 1006.19 1006.51 1006.80 1007.08 1007.36 1007.69 1008.08 1008.57 1009.17 1009.87 1010.65
1009.67 1008.82 1008.11 1007.58 1007.23 1007.05 1006.98 1006.96 1006.92 1006.81 1006.58 1006.23 1005.76 1005.22 1004.67 1004.17 1003.78 1003.52 1003.41 1003.42 1003.53 1003.67 1003.83 1003.95 1004.04 1004.10 1004.15 1004.21 1004.33 1004.50 1004.75 1005.04 1005.37 1005.70 1006.03 1006.35 1006.65 1006.97 1007.32 1007.74 1008.25 1008.86 1009.57 1010.35
1010.78 1009.91 1009.15 1008.53 1008.05 1007.68 1007.40 1007.16 1006.90 1006.57 1006.17 1005.69 1005.16 1004.62 1004.13 1003.74 1003.49 1003.38 1003.41 1003.54 1003.73 1003.92 1004.08 1004.17 1004.20 1004.18 1004.13 1004.10 1004.12 1004.21 1004.39 1004.63 1004.93 1005.26 1005.60 1005.93 1006.27 1006.63 1007.02 1007.47 1008.01 1008.64 1009.36 1010.15
1012.10 1011.24 1010.45 1009.76 1009.16 1008.65 1008.18 1007.73 1007.25 1006.74 1006.17 1005.57 1004.97 1004.41 1003.96 1003.64 1003.48 1003.47 1003.60 1003.80 1004.04 1004.25 1004.40 1004.45 1004.41 1004.30 1004.17 1004.05 1003.98 1003.99 1004.10 1004.29 1004.56 1004.88 1005.22 1005.58 1005.95 1006.34 1006.77 1007.26 1007.83 1008.48 1009.21 1010.00
1013.48 1012.64 1011.86 1011.13 1010.47 1009.84 1009.23 1008.62 1007.97 1007.29 1006.58 1005.86 1005.19 1004.61 1004.15 1003.86 1003.74 1003.78 1003.94 1004.16 1004.40 1004.59 1004.70 1004.70 1004.60 1004.42 1004.22 1004.03 1003.89 1003.85 1003.90 1004.05 1004.29 1004.59 1004.93 1005.29 1005.69 1006.11 1006.57 1007.09 1007.68 1008.34 1009.07 1009.86
1014.73 1013.95 1013.20 1012.48 1011.79 1011.11 1010.42 1009.70 1008.94 1008.14 1007.33 1006.53 1005.80 1005.17 1004.68 1004.37 1004.23 1004.25 1004.37 1004.56 1004.75 1004.89 1004.93 1004.87 1004.72 1004.50 1004.26 1004.03 1003.86 1003.78 1003.80 1003.93 1004.13 1004.41 1004.74 1005.10 1005.50 1005.93 1006.41 1006.94 1007.54 1008.21 1008.93 1009.70
1015.71 1015.00 1014.31 1013.64 1012.97 1012.29 1011.58 1010.82 1010.01 1009.16 1008.29 1007.44 1006.65 1005.98 1005.44 1005.08 1004.88 1004.81 1004.86 1004.95 1005.05 1005.10 1005.08 1004.96 1004.77 1004.53 1004.27 1004.05 1003.88 1003.79 1003.80 1003.91 1004.09 1004.35 1004.65 1005.00 1005.38 1005.80 1006.28 1006.81 1007.41 1008.07 1008.78 1009.54
1016.34 1015.71 1015.10 1014.50 1013.89 1013.25 1012.57 1011.83 1011.03 1010.18 1009.31 1008.45 1007.65 1006.93 1006.35 1005.91 1005.62 1005.45 1005.37 1005.34 1005.32 1005.26 1005.16 1004.99 1004.77 1004.53 1004.29 1004.08 1003.94 1003.87 1003.89 1003.99 1004.16 1004.38 1004.65 1004.97 1005.32 1005.73 1006.19 1006.72 1007.31 1007.96 1008.67 1009.41
1016.60 1016.05 1015.52 1015.00 1014.47 1013.91 1013.30 1012.63 1011.89 1011.10 1010.27 1009.45 1008.66 1007.94 1007.33 1006.82 1006.43 1006.14 1005.93 1005.76 1005.60 1005.43 1005.23 1005.01 1004.77 1004.53 1004.32 1004.16 1004.05 1004.02 1004.05 1004.15 1004.30 1004.50 1004.73 1005.01 1005.32 1005.70 1006.15 1006.66 1007.26 1007.92 1008.63 1009.38
1016.57 1016.09 1015.64 1015.20 1014.76 1014.29 1013.77 1013.19 1012.55 1011.85 1011.12 1010.37 1009.64 1008.95 1008.32 1007.77 1007.30 1006.90 1006.56 1006.25 1005.96 1005.68 1005.39 1005.11 1004.85 1004.62 1004.43 1004.30 1004.23 1004.23 1004.28 1004.38 1004.51 1004.68 1004.87 1005.11 1005.39 1005.75 1006.18 1006.69 1007.30 1007.98 1008.72 1009.49
1016.40 1015.97 1015.59 1015.22 1014.85 1014.46 1014.04 1013.57 1013.04 1012.47 1011.85 1011.21 1010.56 1009.93 1009.32 1008.76 1008.23 1007.75 1007.29 1006.86 1006.45 1006.06 1005.69 1005.35 1005.06 1004.82 1004.64 1004.53 1004.49 1004.50 1004.57 1004.66 1004.77 1004.91 1005.08 1005.28 1005.54 1005.88 1006.31 1006.84 1007.47 1008.19 1008.97 1009.80
1016.25 1015.87 1015.53 1015.21 1014.90 1014.58 1014.24 1013.87 1013.45 1012.99 1012.50 1011.97 1011.42 1010.87 1010.31 1009.75 1009.20 1008.65 1008.11 1007.59 1007.08 1006.59 1006.14 1005.75 1005.41 1005.16 1004.98 1004.87 1004.84 1004.85 1004.91 1004.99 1005.09 1005.21 1005.36 1005.55 1005.81 1006.15 1006.60 1007.15 1007.82 1008.58 1009.42 1010.31
1016.30 1015.95 1015.64 1015.35 1015.08 1014.80 1014.51 1014.21 1013.87 1013.51 1013.11 1012.68 1012.22 1011.74 1011.23 1010.69 1010.13 1009.55 1008.96 1008.37 1007.78 1007.23 1006.71 1006.27 1005.89 1005.61 1005.41 1005.30 1005.26 1005.27 1005.32 1005.40 1005.49 1005.61 1005.75 1005.95 1006.22 1006.59 1007.06 1007.66 1008.37 1009.18 1010.08 1011.03
1016.67 1016.35 1016.05 1015.77 1015.50 1015.23 1014.96 1014.68 1014.38 1014.06 1013.72 1013.34 1012.94 1012.50 1012.02 1011.49 1010.93 1010.33 1009.71 1009.07 1008.44 1007.84 1007.29 1006.81 1006.41 1006.11 1005.90 1005.77 1005.73 1005.73 1005.79 1005.87 1005.97 1006.10 1006.28 1006.50 1006.81 1007.21 1007.73 1008.37 1009.12 1009.98 1010.91 1011.91
1017.38 1017.09 1016.80 1016.51 1016.22 1015.92 1015.62 1015.31 1014.99 1014.66 1014.31 1013.93 1013.52 1013.07 1012.58 1012.05 1011.46 1010.85 1010.20 1009.55 1008.90 1008.29 1007.73 1007.24 1006.85 1006.55 1006.34 1006.23 1006.19 1006.21 1006.29 1006.39 1006.53 1006.71 1006.93 1007.21 1007.57 1008.03 1008.59 1009.27 1010.05 1010.93 1011.89 1012.89
1018.40 1018.12 1017.83 1017.52 1017.19 1016.84 1016.47 1016.08 1015.68 1015.26 1014.83 1014.37 1013.89 1013.38 1012.83 1012.24 1011.62 1010.98 1010.32 1009.66 1009.02 1008.43 1007.90 1007.45 1007.10 1006.84 1006.68 1006.60 1006.60 1006.67 1006.78 1006.95 1007.14 1007.39 1007.68 1008.04 1008.46 1008.98 1009.60 1010.31 1011.11 1011.99 1012.93 1013.92
1019.59 1019.34 1019.05 1018.71 1018.32 1017.88 1017.41 1016.90 1016.37 1015.81 1015.23 1014.63 1014.01 1013.37 1012.71 1012.03 1011.35 1010.66 1009.98 1009.34 1008.74 1008.20 1007.74 1007.37 1007.09 1006.92 1006.84 1006.84 1006.91 1007.05 1007.25 1007.49 1007.77 1008.10 1008.49 1008.93 1009.44 1010.02 1010.69 1011.42 1012.23 1013.09 1014.00 1014.94
1020.82 1020.60 1020.30 1019.92 1019.46 1018.93 1018.33 1017.67 1016.97 1016.23 1015.46 1014.67 1013.86 1013.05 1012.25 1011.45 1010.68 1009.94 1009.25 1008.63 1008.08 1007.62 1007.26 1007.01 1006.85 1006.79 1006.82 1006.93 1007.11 1007.35 1007.64 1007.98 1008.37 1008.80 1009.28 1009.82 1010.41 1011.07 1011.77 1012.53 1013.34 1014.17 1015.03 1015.90
1021.94 1021.74 1021.43 1021.01 1020.48 1019.85 1019.12 1018.31 1017.42 1016.49 1015.51 1014.52 1013.51 1012.52 1011.55 1010.62 1009.75 1008.96 1008.27 1007.67 1007.19 1006.83 1006.59 1006.47 1006.45 1006.53 1006.70 1006.93 1007.23 1007.58 1007.98 1008.42 1008.91 1009.44 1010.02 1010.65 1011.33 1012.04 1012.80 1013.58 1014.38 1015.19 1016.00 1016.81
1022.85 1022.66 1022.34 1021.89 1021.29 1020.56 1019.72 1018.76 1017.72 1016.60 1015.44 1014.26 1013.07 1011.91 1010.79 1009.75 1008.80 1007.97 1007.27 1006.72 1006.31 1006.05 1005.93 1005.94 1006.06 1006.28 1006.57 1006.93 1007.34 1007.79 1008.29 1008.82 1009.40 1010.02 1010.68 1011.39 1012.14 1012.92 1013.72 1014.53 1015.33 1016.12 1016.90 1017.66
1023.51 1023.32 1022.98 1022.49 1021.84 1021.05 1020.11 1019.05 1017.89 1016.65 1015.35 1014.03 1012.72 1011.43 1010.21 1009.09 1008.10 1007.25 1006.56 1006.04 1005.70 1005.53 1005.52 1005.64 1005.88 1006.21 1006.61 1007.06 1007.56 1008.09 1008.65 1009.25 1009.89 1010.57 1011.29 1012.06 1012.87 1013.70 1014.54 1015.38 1016.20 1016.99 1017.76 1018.49
Thickness
5522 5525 5536 5549 5552 5560 5564 5567 5572 5577 5575 5574 5581 5588 5596 5598 5601 5605 5610 5614 5617 5620 5622 5622 5623 5624 5624 5625 5626 5627 5628 5628 5628 5629 5629 5629 5629 5630 5631 5632 5633 5634 5636 5637
5507 5517 5535 5535 5534 5536 5542 5548 5556 5559 5557 5561 5569 5576 5584 5589 5592 5597 5602 5607 5611 5612 5613 5613 5614 5616 5617 5618 5619 5620 5621 5621 5621 5621 5622 5622 5622 5622 5623 5624 5625 5626 5627 5628
5500 5515 5517 5515 5517 5519 5527 5535 5543 5544 5544 5547 5553 5566 5577 5583 5584 5587 5592 5597 5601 5602 5604 5605 5606 5608 5609 5611 5612 5613 5613 5614 5613 5613 5613 5612 5612 5613 5614 5615 5616 5617 5618 5619
5486 5498 5498 5501 5506 5510 5517 5526 5527 5527 5531 5539 5543 5556 5573 5574 5574 5578 5583 5587 5590 5591 5594 5596 5597 5599 5601 5603 5603 5604 5605 5605 5605 5605 5605 5606 5607 5608 5608 5608 5608 5609 5610 5611
5472 5479 5482 5487 5498 5500 5506 5510 5512 5514 5520 5524 5531 5536 5560 5561 5563 5569 5573 5577 5579 5580 5582 5584 5587 5590 5591 5592 5593 5594 5595 5596 5596 5597 5598 5598 5600 5601 5601 5600 5600 5600 5601 5602
5458 5460 5464 5475 5484 5487 5488 5493 5495 5499 5502 5506 5529 5529 5546 5551 5557 5560 5561 5563 5565 5567 5569 5572 5574 5577 5579 5581 5582 5584 5586 5586 5587 5588 5590 5591 5592 5592 5592 5591 5592 5592 5592 5593
5440 5448 5450 5456 5466 5472 5476 5482 5485 5486 5492 5511 5526 5521 5531 5536 5540 5544 5547 5549 5551 5554 5557 5559 5562 5565 5568 5570 5572 5573 5576 5577 5578 5579 5581 5582 5583 5584 5584 5584 5583 5583 5584 5584
5419 5434 5439 5441 5451 5460 5468 5477 5487 5493 5503 5513 5507 5512 5520 5518 5522 5526 5529 5532 5536 5540 5543 5546 5549 5552 5556 5558 5561 5563 5565 5567 5568 5570 5572 5573 5574 5575 5575 5575 5575 5575 5576 5576
5401 5417 5428 5430 5438 5447 5454 5461 5474 5479 5486 5491 5498 5501 5498 5503 5506 5511 5515 5519 5522 5526 5529 5532 5536 5539 5543 5547 5549 5552 5555 5557 5559 5561 5562 5564 5565 5566 5566 5566 5566 5566 5566 5566
5373 5389 5411 5418 5425 5433 5443 5452 5456 5460 5470 5483 5494 5497 5501 5493 5494 5497 5501 5505 5509 5512 5516 5519 5523 5526 5530 5534 5537 5541 5544 5546 5549 5551 5553 5554 5555 5556 5556 5556 5557 5557 5557 5556
5360 5370 5393 5404 5410 5419 5424 5430 5440 5454 5463 5476 5481 5484 5479 5481 5481 5483 5487 5491 5495 5498 5501 5506 5510 5514 5518 5521 5525 5528 5531 5534 5537 5539 5542 5543 5545 5545 5546 5547 5548 5548 5548 5547
5350 5359 5375 5389 5397 5402 5412 5416 5423 5435 5444 5458 5470 5465 5459 5465 5467 5468 5471 5475 5479 5483 5487 5492 5496 5501 5505 5508 5512 5515 5518 5522 5525 5528 5530 5532 5533 5534 5536 5536 5537 5537 5537 5537
5339 5346 5364 5384 5386 5386 5390 5397 5405 5414 5428 5441 5450 5450 5446 5449 5450 5451 5455 5459 5464 5469 5473 5478 5483 5487 5491 5495 5499 5503 5506 5509 5512 5515 5518 5520 5522 5523 5525 5525 5525 5526 5526 5527
5330 5332 5342 5361 5369 5367 5371 5380 5389 5398 5410 5423 5434 5436 5433 5433 5434 5436 5439 5443 5449 5453 5458 5464 5469 5474 5478 5481 5485 5490 5493 5496 5499 5503 5506 5508 5511 5513 5513 5514 5514 5515 5515 5516
5318 5323 5327 5336 5346 5352 5357 5365 5375 5381 5394 5404 5415 5418 5416 5417 5418 5421 5425 5430 5434 5439 5443 5449 5456 5460 5464 5468 5472 5476 5480 5483 5486 5490 5493 5496 5499 5500 5502 5503 5504 5504 5504 5504
5306 5311 5318 5328 5339 5346 5346 5350 5360 5367 5376 5386 5393 5393 5394 5397 5402 5407 5412 5415 5420 5424 5429 5435 5441 5447 5451 5455 5459 5464 5468 5472 5475 5478 5481 5483 5486 5488 5491 5492 5492 5492 5492 5492
5299 5301 5312 5328 5332 5340 5337 5334 5341 5348 5354 5364 5374 5372 5374 5380 5384 5390 5395 5400 5405 5410 5414 5419 5427 5434 5439 5443 5447 5451 5456 5459 5463 5466 5469 5470 5473 5476 5478 5480 5481 5481 5481 5480
5290 5295 5304 5317 5323 5318 5322 5320 5326 5334 5337 5342 5347 5353 5359 5364 5370 5376 5382 5386 5392 5396 5400 5406 5413 5420 5425 5431 5435 5439 5444 5448 5451 5454 5456 5459 5461 5463 5465 5467 5468 5469 5468 5469
5287 5291 5299 5307 5312 5313 5313 5310 5310 5320 5328 5328 5331 5338 5344 5351 5362 5370 5370 5373 5378 5383 5389 5395 5402 5408 5414 5419 5423 5427 5431 5435 5438 5441 5444 5446 5448 5450 5452 5454 5455 5456 5456 5456
5282 5284 5291 5294 5300 5300 5297 5298 5304 5313 5320 5316 5317 5322 5329 5338 5352 5360 5358 5361 5367 5372 5379 5385 5392 5398 5404 5408 5412 5416 5419 5423 5426 5429 5431 5433 5435 5438 5440 5441 5442 5443 5443 5443
5275 5275 5276 5282 5286 5290 5281 5287 5300 5305 5303 5302 5306 5311 5318 5325 5331 5337 5344 5350 5356 5362 5369 5376 5383 5389 5394 5398 5401 5404 5407 5410 5412 5415 5418 5420 5422 5425 5427 5428 5429 5430 5431 5431
5262 5268 5267 5272 5274 5274 5272 5280 5282 5282 5287 5292 5297 5301 5306 5313 5319 5325 5332 5339 5345 5351 5359 5366 5372 5378 5383 5386 5390 5392 5394 5397 5399 5402 5405 5407 5409 5411 5413 5415 5416 5417 5418 5419
5252 5253 5258 5259 5261 5262 5263 5266 5268 5272 5276 5281 5285 5290 5295 5301 5308 5315 5321 5327 5334 5340 5347 5354 5360 5366 5370 5373 5377 5380 5382 5384 5387 5390 5392 5394 5396 5398 5400 5402 5403 5404 5406 5407
5246 5244 5249 5251 5254 5254 5256 5258 5261 5263 5266 5270 5275 5280 5286 5292 5298 5304 5311 5317 5323 5329 5335 5341 5348 5353 5357 5361 5364 5367 5370 5373 5376 5378 5380 5382 5383 5385 5387 5389 5391 5392 5394 5395
5234 5238 5241 5244 5246 5248 5250 5250 5252 5255 5259 5263 5268 5272 5277 5283 5289 5295 5300 5306 5312 5318 5324 5329 5335 5340 5344 5348 5352 5355 5358 5361 5365 5367 5368 5370 5371 5373 5375 5377 5379 5381 5383 5384
5225 5227 5232 5237 5236 5236 5238 5240 5243 5247 5250 5254 5259 5265 5270 5274 5279 5284 5290 5296 5301 5307 5313 5318 5323 5328 5332 5336 5340 5343 5346 5351 5354 5356 5357 5359 5360 5362 5364 5365 5366 5367 5370 5371